Location: Claremont
(33.9858°S, 18.4575°E)
Time: 03:19:25
(UTC+00:00)

Cosmos 44 - Pass Details

Date: 03 March 2021
Orbit: 571 x 791 km, 65.1° (Epoch: 10 April)

Event Time Altitude Azimuth Distance (km) Brightness Sun altitude
Rises 18:46:20 0° 326° (NW) 3,094 6.8 -18.2°
Reaches altitude 10° 18:48:45 10° 323° (NW) 2,147 6.0 -18.6°
Maximum altitude 18:53:35 65° 241° (WSW) 730 3.6 -19.6°
Drops below altitude 10° 18:58:10 10° 158° (SSE) 2,032 5.7 -20.4°
Sets 19:00:25 0° 155° (SSE) 2,914 6.5 -20.9°
